Simultaneous Nadir Overpasses (SNOs) Predictions

Prediction of SNOs between LANDSAT-8 and METOP-B Satellite Orbit:

Table of predicted SNOs for the next 14.0 days since TLE Epoch: 1/16/2015
Index Date (LANDSAT-8) Time (LANDSAT-8) Lat,Lon (LANDSAT-8) SZA (LANDSAT-8 ) Date (METOP-B) Time (METOP-B) Lat,Lon (METOP-B) SZA (METOP-B ) Distance(km) Time Diff (sec)
1 01/18/2015 03:30:27 81.04, 165.87 103.25 01/18/2015 03:30:00 81.05, 165.93 103.25 1.05 27
2 01/18/2015 04:19:53 -81.07, -26.19 76.72 01/18/2015 04:20:39 -81.07, -26.06 76.69 2.37 46
3 01/20/2015 23:04:40 81.05,-127.61 102.65 01/20/2015 23:04:23 81.05,-127.54 102.65 1.25 17
4 01/20/2015 23:54:06 -81.07, 40.34 77.32 01/20/2015 23:55:02 -81.08, 40.46 77.28 2.26 56
5 01/23/2015 18:38:52 81.04, -61.28 101.98 01/23/2015 18:38:46 81.04, -61.44 101.96 2.71 6
6 01/23/2015 19:28:17 -81.09, 107.04 77.94 01/23/2015 19:29:24 -81.08, 106.93 77.93 2.00 67
7 01/26/2015 13:23:39 -81.02,-162.80 78.77 01/26/2015 13:22:29 -81.03,-162.64 78.77 3.04 70
8 01/26/2015 14:13:03 81.07, 5.57 101.34 01/26/2015 14:13:07 81.07, 5.72 101.35 2.57 4
9 01/29/2015 08:57:50 -81.04, -96.12 79.48 01/29/2015 08:56:52 -81.03, -96.27 79.52 2.80 58




NCC Satellite Simultaneous Nadir Overpasses (SNOs) Prediction Service
